• In Belgien
  • Länderverzeichnis
  • Für 7 Tage
  • Wassertemperatur
  • Satellitenkarten
  • Wetterkarte
  • Widgets
  • user-avatar
    Anmelden

    Stündliche Wetter Privolzhskiy

    Heute, 23 Juli, Montag

    Zeit Temperatur Niederschläge Wind Luftdruck Luftfeuchtigkeit
    00:00 +18°C° 0 mm 3 m/S 748 mmHg 94%
    01:00 +17°C° 0 mm 2 m/S 748 mmHg 95%
    02:00 +17°C° 0 mm 2 m/S 748 mmHg 96%
    03:00 +17°C° 0 mm 2 m/S 748 mmHg 98%
    04:00 +17°C° 0 mm 2 m/S 748 mmHg 97%
    05:00 +17°C° 0 mm 3 m/S 748 mmHg 95%
    06:00 +18°C° 0 mm 3 m/S 749 mmHg 94%
    07:00 +19°C° 0 mm 3 m/S 749 mmHg 90%
    08:00 +20°C° 0 mm 3 m/S 749 mmHg 85%
    09:00 +21°C° 0 mm 4 m/S 749 mmHg 81%
    10:00 +22°C° 0,1 mm 4 m/S 749 mmHg 77%
    11:00 +23°C° 0,1 mm 4 m/S 749 mmHg 72%
    12:00 +25°C° 0,1 mm 4 m/S 749 mmHg 68%
    13:00 +25°C° 0,2 mm 4 m/S 749 mmHg 66%
    14:00 +26°C° 0,2 mm 4 m/S 749 mmHg 64%
    15:00 +26°C° 0,2 mm 4 m/S 748 mmHg 62%
    16:00 +26°C° 0,2 mm 4 m/S 748 mmHg 64%
    17:00 +26°C° 0,2 mm 4 m/S 748 mmHg 66%
    18:00 +25°C° 0,2 mm 4 m/S 749 mmHg 68%
    19:00 +24°C° 0 mm 3 m/S 749 mmHg 73%
    20:00 +21°C° 0 mm 3 m/S 749 mmHg 78%
    21:00 +19°C° 0 mm 3 m/S 749 mmHg 82%
    22:00 +18°C° 0 mm 3 m/S 749 mmHg 86%
    23:00 +17°C° 0 mm 3 m/S 749 mmHg 90%

    Morgen, 24 Juli, Dienstag

    Zeit Temperatur Niederschläge Wind Luftdruck Luftfeuchtigkeit
    00:00 +16°C° 0 mm 2 m/S 749 mmHg 93%
    01:00 +15°C° 0 mm 2 m/S 749 mmHg 94%
    02:00 +15°C° 0 mm 2 m/S 749 mmHg 94%
    03:00 +15°C° 0 mm 2 m/S 749 mmHg 94%
    04:00 +14°C° 0 mm 3 m/S 749 mmHg 93%
    05:00 +16°C° 0 mm 3 m/S 749 mmHg 92%
    06:00 +16°C° 0 mm 3 m/S 749 mmHg 92%
    07:00 +17°C° 0 mm 3 m/S 749 mmHg 91%
    08:00 +17°C° 0 mm 3 m/S 750 mmHg 90%
    09:00 +17°C° 0 mm 3 m/S 750 mmHg 89%
    10:00 +18°C° 0,1 mm 3 m/S 750 mmHg 89%
    11:00 +18°C° 0,1 mm 3 m/S 750 mmHg 89%
    12:00 +18°C° 0,1 mm 3 m/S 750 mmHg 89%
    13:00 +19°C° 0 mm 3 m/S 750 mmHg 87%
    14:00 +20°C° 0 mm 3 m/S 750 mmHg 84%
    15:00 +21°C° 0 mm 3 m/S 750 mmHg 82%
    16:00 +21°C° 0 mm 3 m/S 750 mmHg 83%
    17:00 +21°C° 0 mm 3 m/S 750 mmHg 83%
    18:00 +21°C° 0 mm 2 m/S 750 mmHg 84%
    19:00 +20°C° 0 mm 2 m/S 750 mmHg 87%
    20:00 +20°C° 0 mm 2 m/S 750 mmHg 91%
    21:00 +19°C° 0 mm 2 m/S 750 mmHg 94%
    22:00 +19°C° 0 mm 2 m/S 750 mmHg 95%
    23:00 +19°C° 0 mm 2 m/S 750 mmHg 95%

    übermorgen, 25 Juli, Mittwoch

    Zeit Temperatur Niederschläge Wind Luftdruck Luftfeuchtigkeit
    00:00 +19°C° 0 mm 2 m/S 750 mmHg 96%
    01:00 +18°C° 0 mm 2 m/S 751 mmHg 96%
    02:00 +18°C° 0 mm 2 m/S 751 mmHg 97%
    03:00 +18°C° 0 mm 2 m/S 751 mmHg 97%
    04:00 +18°C° 0 mm 2 m/S 751 mmHg 96%
    05:00 +18°C° 0 mm 3 m/S 751 mmHg 95%
    06:00 +18°C° 0 mm 3 m/S 751 mmHg 94%
    07:00 +19°C° 0,1 mm 3 m/S 751 mmHg 92%
    08:00 +20°C° 0,1 mm 3 m/S 752 mmHg 89%
    09:00 +21°C° 0,1 mm 3 m/S 752 mmHg 87%
    10:00 +22°C° 0 mm 4 m/S 752 mmHg 79%
    11:00 +23°C° 0 mm 4 m/S 752 mmHg 72%
    12:00 +26°C° 0 mm 4 m/S 752 mmHg 65%
    13:00 +27°C° 0,1 mm 4 m/S 752 mmHg 60%
    14:00 +27°C° 0,1 mm 4 m/S 752 mmHg 54%
    15:00 +28°C° 0,1 mm 4 m/S 752 mmHg 49%
    16:00 +27°C° 0 mm 4 m/S 752 mmHg 52%
    17:00 +26°C° 0 mm 4 m/S 752 mmHg 55%
    18:00 +25°C° 0 mm 4 m/S 752 mmHg 58%
    19:00 +22°C° 0 mm 4 m/S 753 mmHg 63%
    20:00 +21°C° 0 mm 3 m/S 753 mmHg 69%
    21:00 +19°C° 0 mm 3 m/S 753 mmHg 75%
    22:00 +18°C° 0 mm 3 m/S 753 mmHg 78%
    23:00 +18°C° 0 mm 3 m/S 753 mmHg 80%

    26 Juli, Donnerstag

    Zeit Temperatur Niederschläge Wind Luftdruck Luftfeuchtigkeit
    00:00 +18°C° 0 mm 2 m/S 753 mmHg 83%
    01:00 +18°C° 0,1 mm 2 m/S 753 mmHg 85%
    02:00 +18°C° 0,1 mm 2 m/S 753 mmHg 87%
    03:00 +18°C° 0,1 mm 3 m/S 753 mmHg 89%
    04:00 +18°C° 0,2 mm 3 m/S 753 mmHg 91%
    05:00 +18°C° 0,2 mm 3 m/S 753 mmHg 93%
    06:00 +18°C° 0,2 mm 3 m/S 753 mmHg 95%
    07:00 +19°C° 0,2 mm 3 m/S 753 mmHg 93%
    08:00 +20°C° 0,2 mm 3 m/S 753 mmHg 91%
    09:00 +20°C° 0,2 mm 3 m/S 753 mmHg 89%
    10:00 +22°C° 0 mm 3 m/S 753 mmHg 84%
    11:00 +24°C° 0 mm 3 m/S 753 mmHg 79%
    12:00 +25°C° 0 mm 3 m/S 753 mmHg 74%
    13:00 +26°C° 0 mm 3 m/S 753 mmHg 72%
    14:00 +26°C° 0 mm 3 m/S 753 mmHg 71%
    15:00 +27°C° 0 mm 3 m/S 753 mmHg 69%
    16:00 +27°C° 0,1 mm 3 m/S 753 mmHg 68%
    17:00 +27°C° 0,1 mm 2 m/S 753 mmHg 68%
    18:00 +28°C° 0,1 mm 2 m/S 753 mmHg 68%
    19:00 +26°C° 0,1 mm 2 m/S 753 mmHg 70%
    20:00 +25°C° 0,1 mm 2 m/S 753 mmHg 73%
    21:00 +24°C° 0,1 mm 2 m/S 753 mmHg 75%
    22:00 +23°C° 0,1 mm 2 m/S 753 mmHg 76%
    23:00 +21°C° 0,1 mm 2 m/S 753 mmHg 77%

    27 Juli, Freitag

    Zeit Temperatur Niederschläge Wind Luftdruck Luftfeuchtigkeit
    00:00 +20°C° 0,1 mm 2 m/S 753 mmHg 78%
    01:00 +19°C° 0,3 mm 2 m/S 753 mmHg 83%
    02:00 +19°C° 0,3 mm 2 m/S 753 mmHg 87%
    03:00 +18°C° 0,3 mm 2 m/S 753 mmHg 92%
    04:00 +19°C° 0,1 mm 2 m/S 753 mmHg 93%
    05:00 +19°C° 0,1 mm 2 m/S 753 mmHg 94%
    06:00 +19°C° 0,1 mm 2 m/S 753 mmHg 94%
    07:00 +21°C° 0,1 mm 2 m/S 753 mmHg 92%
    08:00 +23°C° 0,1 mm 2 m/S 753 mmHg 89%
    09:00 +24°C° 0,1 mm 2 m/S 753 mmHg 86%
    10:00 +25°C° 0,5 mm 2 m/S 753 mmHg 83%
    11:00 +26°C° 0,5 mm 2 m/S 753 mmHg 79%
    12:00 +27°C° 0,5 mm 2 m/S 753 mmHg 75%
    13:00 +28°C° 0,4 mm 2 m/S 753 mmHg 70%
    14:00 +29°C° 0,4 mm 2 m/S 753 mmHg 66%
    15:00 +30°C° 0,4 mm 1 m/S 752 mmHg 61%
    16:00 +30°C° 0,4 mm 1 m/S 752 mmHg 63%
    17:00 +29°C° 0,4 mm 1 m/S 752 mmHg 66%
    18:00 +29°C° 0,4 mm 1 m/S 752 mmHg 68%
    19:00 +27°C° 0,9 mm 1 m/S 752 mmHg 74%
    20:00 +25°C° 0,9 mm 1 m/S 752 mmHg 81%
    21:00 +22°C° 0,9 mm 0 m/S 752 mmHg 87%
    22:00 +21°C° 0,6 mm 0 m/S 752 mmHg 88%
    23:00 +22°C° 0,6 mm 1 m/S 752 mmHg 90%

    28 Juli, Samstag

    Zeit Temperatur Niederschläge Wind Luftdruck Luftfeuchtigkeit
    00:00 +22°C° 0,6 mm 1 m/S 752 mmHg 91%
    01:00 +22°C° 0,6 mm 1 m/S 752 mmHg 92%
    02:00 +22°C° 0,6 mm 1 m/S 752 mmHg 92%
    03:00 +22°C° 0,6 mm 1 m/S 752 mmHg 93%
    04:00 +22°C° 0,2 mm 1 m/S 752 mmHg 93%
    05:00 +22°C° 0,2 mm 1 m/S 752 mmHg 93%
    06:00 +22°C° 0,2 mm 1 m/S 752 mmHg 93%
    07:00 +22°C° 0,2 mm 1 m/S 752 mmHg 92%
    08:00 +23°C° 0,2 mm 1 m/S 752 mmHg 90%
    09:00 +24°C° 0,2 mm 1 m/S 752 mmHg 89%
    10:00 +25°C° 1 mm 1 m/S 752 mmHg 86%
    11:00 +26°C° 1 mm 2 m/S 752 mmHg 83%
    12:00 +27°C° 1 mm 3 m/S 752 mmHg 80%
    13:00 +26°C° 1,6 mm 3 m/S 752 mmHg 82%
    14:00 +26°C° 1,6 mm 3 m/S 752 mmHg 83%
    15:00 +26°C° 1,6 mm 2 m/S 752 mmHg 85%
    16:00 +25°C° 0,4 mm 2 m/S 752 mmHg 86%
    17:00 +25°C° 0,4 mm 3 m/S 752 mmHg 86%
    18:00 +25°C° 0,4 mm 3 m/S 753 mmHg 87%
    19:00 +24°C° 0,5 mm 3 m/S 753 mmHg 90%
    20:00 +22°C° 0,5 mm 3 m/S 753 mmHg 92%
    21:00 +21°C° 0,5 mm 4 m/S 753 mmHg 95%
    22:00 +20°C° 0,2 mm 4 m/S 753 mmHg 95%
    23:00 +20°C° 0,2 mm 4 m/S 754 mmHg 95%
    Mehr zeigen